| time (UTC) | temp F | wind direction | speed MPH | gust MPH | rain 1hr in | rain 24hr in | rain mn in | humidity % | barometer mb |
| 20260901092557 | 65 | 244 | 8.0 | 17.0 | 0.00 | 0.25 | 0.08 | 78 | 1018.0 |
| 20260901092057 | 66 | 271 | 5.0 | 17.0 | 0.00 | 0.25 | 0.08 | 78 | 1018.1 |
| 20260901091612 | 66 | 271 | 3.0 | 17.0 | 0.00 | 0.25 | 0.08 | 81 | 1018.0 |
| 20260901091056 | 65 | 294 | 7.0 | 17.0 | 0.00 | 0.25 | 0.08 | 81 | 1018.1 |
| 20260901090556 | 64 | 260 | 9.0 | 18.0 | 0.00 | 0.25 | 0.08 | 81 | 1018.0 |
| 20260901090108 | 65 | 254 | 8.0 | 18.0 | 0.00 | 0.25 | 0.08 | 80 | 1018.0 |
| 20260901085557 | 65 | 286 | 7.0 | 15.0 | 0.00 | 0.25 | 0.08 | 82 | 1018.0 |
| 20260901085100 | 64 | 265 | 8.0 | 16.0 | 0.00 | 0.25 | 0.08 | 82 | 1017.9 |
| 20260901084608 | 64 | 257 | 7.0 | 16.0 | 0.00 | 0.25 | 0.08 | 83 | 1017.9 |
| 20260901084057 | 64 | 262 | 10.0 | 16.0 | 0.00 | 0.25 | 0.08 | 83 | 1017.9 |
| 20260901083558 | 64 | 269 | 9.0 | 17.0 | 0.00 | 0.25 | 0.08 | 84 | 1017.8 |
| 20260901083107 | 64 | 250 | 8.0 | 17.0 | 0.00 | 0.25 | 0.08 | 85 | 1017.8 |
| 20260901082557 | 63 | 259 | 9.0 | 14.0 | 0.00 | 0.25 | 0.08 | 85 | 1017.8 |
| 20260901082059 | 63 | 223 | 7.0 | 14.0 | 0.00 | 0.25 | 0.08 | 86 | 1017.8 |
| 20260901081607 | 63 | 234 | 6.0 | 17.0 | 0.00 | 0.25 | 0.08 | 87 | 1017.8 |
| 20260901081056 | 63 | 259 | 7.0 | 17.0 | 0.00 | 0.25 | 0.08 | 87 | 1017.8 |
| 20260901080556 | 63 | 253 | 8.0 | 17.0 | 0.00 | 0.25 | 0.08 | 88 | 1017.8 |
| 20260901080104 | 63 | 248 | 9.0 | 17.0 | 0.00 | 0.25 | 0.08 | 88 | 1017.7 |
| 20260901075556 | 62 | 250 | 8.0 | 15.0 | 0.07 | 0.25 | 0.08 | 90 | 1017.7 |
| 20260901075057 | 62 | 229 | 8.0 | 15.0 | 0.07 | 0.25 | 0.08 | 90 | 1017.7 |
| 20260901074603 | 61 | 238 | 7.0 | 13.0 | 0.07 | 0.25 | 0.08 | 90 | 1017.6 |
| 20260901074058 | 61 | 254 | 7.0 | 13.0 | 0.08 | 0.25 | 0.08 | 91 | 1017.6 |
| 20260901073557 | 61 | 256 | 7.0 | 13.0 | 0.08 | 0.25 | 0.08 | 91 | 1017.6 |
| 20260901073121 | 61 | 254 | 4.0 | 12.0 | 0.08 | 0.25 | 0.08 | 91 | 1017.6 |
| 20260901072558 | 61 | 239 | 4.0 | 10.0 | 0.08 | 0.25 | 0.08 | 92 | 1017.5 |
| 20260901072057 | 60 | 241 | 4.0 | 10.0 | 0.08 | 0.25 | 0.08 | 91 | 1017.6 |
| 20260901071606 | 60 | 271 | 4.0 | 9.0 | 0.08 | 0.25 | 0.08 | 91 | 1017.5 |
| 20260901071057 | 60 | 238 | 4.0 | 9.0 | 0.07 | 0.24 | 0.07 | 90 | 1017.5 |
| 20260901070558 | 60 | 256 | 3.0 | 9.0 | 0.07 | 0.24 | 0.07 | 89 | 1017.5 |
| 20260901070115 | 61 | 278 | 4.0 | 11.0 | 0.07 | 0.24 | 0.07 | 89 | 1017.5 |
| 20260901065557 | 61 | 269 | 4.0 | 14.0 | 0.01 | 0.18 | 0.01 | 88 | 1017.5 |
| 20260901065056 | 61 | 255 | 7.0 | 15.0 | 0.00 | 0.17 | 0.00 | 87 | 1017.4 |
| 20260901064610 | 61 | 277 | 7.0 | 15.0 | 0.00 | 0.17 | 0.00 | 85 | 1017.4 |
| 20260901064057 | 61 | 254 | 7.0 | 15.0 | 0.00 | 0.16 | 0.00 | 85 | 1017.2 |
| 20260901063556 | 61 | 258 | 8.0 | 15.0 | 0.00 | 0.16 | 0.00 | 85 | 1017.2 |
| 20260901063104 | 61 | 271 | 8.0 | 15.0 | 0.00 | 0.16 | 0.00 | 85 | 1017.2 |
| 20260901062559 | 61 | 253 | 7.0 | 12.0 | 0.00 | 0.16 | 0.00 | 86 | 1017.2 |
| 20260901062059 | 61 | 233 | 7.0 | 15.0 | 0.00 | 0.16 | 0.00 | 86 | 1017.2 |
| 20260901061606 | 60 | 245 | 5.0 | 15.0 | 0.00 | 0.16 | 0.00 | 86 | 1017.1 |
| 20260901061058 | 60 | 234 | 7.0 | 13.0 | 0.00 | 0.16 | 0.00 | 86 | 1017.1 |
| 20260901060557 | 60 | 217 | 5.0 | 13.0 | 0.00 | 0.16 | 0.00 | 87 | 1017.0 |
| 20260901060103 | 60 | 248 | 6.0 | 16.0 | 0.00 | 0.16 | 0.00 | 86 | 1017.0 |
| 20260901055556 | 60 | 232 | 7.0 | 16.0 | 0.00 | 0.16 | 0.00 | 87 | 1017.0 |
| 20260901055057 | 60 | 229 | 5.0 | 12.0 | 0.00 | 0.16 | 0.00 | 87 | 1016.9 |
| 20260901054605 | 60 | 244 | 6.0 | 12.0 | 0.00 | 0.16 | 0.00 | 87 | 1016.8 |
| 20260901054057 | 59 | 248 | 5.0 | 10.0 | 0.00 | 0.16 | 0.00 | 87 | 1016.8 |
| 20260901053559 | 59 | 232 | 5.0 | 10.0 | 0.00 | 0.16 | 0.00 | 87 | 1016.8 |
| 20260901053114 | 59 | 249 | 5.0 | 10.0 | 0.00 | 0.16 | 0.00 | 87 | 1016.8 |
| 20260901052556 | 59 | 243 | 4.0 | 9.0 | 0.00 | 0.16 | 0.00 | 88 | 1016.7 |
| 20260901052056 | 59 | 235 | 3.0 | 11.0 | 0.00 | 0.16 | 0.00 | 87 | 1016.6 |
| 20260901051604 | 59 | 243 | 6.0 | 11.0 | 0.00 | 0.16 | 0.00 | 87 | 1016.6 |
| 20260901051056 | 59 | 227 | 4.0 | 10.0 | 0.00 | 0.16 | 0.00 | 87 | 1016.6 |
| 20260901050629 | 59 | 249 | 4.0 | 11.0 | 0.00 | 0.16 | 0.00 | 87 | 1016.6 |
| 20260901050104 | 59 | 239 | 4.0 | 11.0 | 0.00 | 0.16 | 0.00 | 87 | 1016.4 |
| 20260901045558 | 59 | 265 | 7.0 | 11.0 | 0.00 | 0.16 | 0.00 | 87 | 1016.4 |
| 20260901045057 | 59 | 277 | 6.0 | 11.0 | 0.00 | 0.16 | 0.00 | 87 | 1016.4 |
| 20260901044601 | 59 | 229 | 4.0 | 10.0 | 0.00 | 0.16 | 0.00 | 87 | 1016.3 |
| 20260901044058 | 59 | 237 | 5.0 | 13.0 | 0.00 | 0.16 | 0.00 | 87 | 1016.2 |
| 20260901043557 | 59 | 246 | 5.0 | 13.0 | 0.00 | 0.16 | 0.00 | 87 | 1016.2 |
| 20260901043059 | 59 | 242 | 5.0 | 12.0 | 0.00 | 0.16 | 0.00 | 87 | 1016.1 |
| 20260901042555 | 59 | 250 | 4.0 | 12.0 | 0.00 | 0.16 | 0.00 | 87 | 1016.1 |
| 20260901042056 | 59 | 254 | 5.0 | 12.0 | 0.00 | 0.16 | 0.00 | 87 | 1016.1 |
| 20260901041604 | 59 | 247 | 6.0 | 10.0 | 0.00 | 0.16 | 0.00 | 87 | 1016.1 |
| 20260901041057 | 59 | 266 | 6.0 | 12.0 | 0.00 | 0.16 | 0.00 | 86 | 1016.0 |
| 20260901040556 | 59 | 244 | 5.0 | 12.0 | 0.00 | 0.16 | 0.00 | 86 | 1015.9 |
| 20260901040105 | 59 | 255 | 5.0 | 13.0 | 0.00 | 0.16 | 0.00 | 86 | 1015.8 |
| 20260901035556 | 59 | 234 | 6.0 | 13.0 | 0.00 | 0.16 | 0.00 | 86 | 1015.8 |
| 20260901035056 | 59 | 228 | 5.0 | 11.0 | 0.00 | 0.16 | 0.00 | 86 | 1015.8 |
| 20260901034602 | 60 | 257 | 6.0 | 11.0 | 0.00 | 0.16 | 0.00 | 86 | 1015.8 |
| 20260901034055 | 60 | 248 | 5.0 | 11.0 | 0.00 | 0.16 | 0.00 | 86 | 1015.8 |
| 20260901033555 | 60 | 252 | 5.0 | 10.0 | 0.00 | 0.16 | 0.00 | 86 | 1015.7 |
| 20260901033119 | 60 | 259 | 5.0 | 10.0 | 0.00 | 0.16 | 0.00 | 86 | 1015.7 |
| 20260901032559 | 60 | 262 | 5.0 | 11.0 | 0.00 | 0.16 | 0.00 | 86 | 1015.6 |
| 20260901032056 | 60 | 275 | 6.0 | 11.0 | 0.00 | 0.16 | 0.00 | 86 | 1015.6 |
| 20260901031604 | 60 | 257 | 6.0 | 12.0 | 0.00 | 0.16 | 0.00 | 86 | 1015.7 |
| 20260901031055 | 60 | 260 | 6.0 | 12.0 | 0.00 | 0.16 | 0.00 | 85 | 1015.6 |
| 20260901030556 | 60 | 254 | 6.0 | 15.0 | 0.00 | 0.16 | 0.00 | 85 | 1015.6 |
| 20260901030107 | 60 | 279 | 8.0 | 15.0 | 0.00 | 0.16 | 0.00 | 85 | 1015.6 |
| 20260901025556 | 60 | 261 | 5.0 | 12.0 | 0.00 | 0.16 | 0.00 | 85 | 1015.5 |
| 20260901025056 | 60 | 265 | 6.0 | 12.0 | 0.00 | 0.16 | 0.00 | 85 | 1015.4 |
| 20260901024603 | 60 | 252 | 6.0 | 15.0 | 0.00 | 0.16 | 0.00 | 85 | 1015.4 |
| 20260901024055 | 60 | 250 | 7.0 | 15.0 | 0.00 | 0.16 | 0.00 | 85 | 1015.4 |
| 20260901023555 | 60 | 253 | 7.0 | 15.0 | 0.00 | 0.16 | 0.00 | 85 | 1015.4 |
| 20260901023104 | 60 | 288 | 6.0 | 14.0 | 0.00 | 0.16 | 0.00 | 85 | 1015.4 |
| 20260901022555 | 60 | 266 | 5.0 | 15.0 | 0.00 | 0.16 | 0.00 | 85 | 1015.4 |
| 20260901022055 | 60 | 258 | 8.0 | 15.0 | 0.00 | 0.16 | 0.00 | 85 | 1015.4 |
| 20260901021610 | 60 | 236 | 7.0 | 15.0 | 0.00 | 0.16 | 0.00 | 85 | 1015.3 |
| 20260901021055 | 60 | 265 | 6.0 | 15.0 | 0.00 | 0.16 | 0.00 | 85 | 1015.3 |
| 20260901020555 | 60 | 262 | 6.0 | 17.0 | 0.00 | 0.16 | 0.00 | 85 | 1015.3 |
| 20260901020119 | 60 | 251 | 6.0 | 17.0 | 0.00 | 0.16 | 0.00 | 85 | 1015.2 |
| 20260901015558 | 60 | 294 | 8.0 | 16.0 | 0.00 | 0.16 | 0.00 | 85 | 1015.3 |
| 20260901015058 | 60 | 265 | 7.0 | 16.0 | 0.00 | 0.16 | 0.00 | 85 | 1015.2 |
| 20260901014601 | 60 | 265 | 7.0 | 16.0 | 0.00 | 0.16 | 0.00 | 85 | 1015.2 |
| 20260901014058 | 60 | 238 | 6.0 | 13.0 | 0.00 | 0.16 | 0.00 | 85 | 1015.2 |
| 20260901013558 | 60 | 263 | 5.0 | 14.0 | 0.00 | 0.16 | 0.00 | 85 | 1015.2 |
| 20260901013115 | 60 | 257 | 6.0 | 14.0 | 0.00 | 0.16 | 0.00 | 85 | 1015.2 |
| 20260901012557 | 60 | 253 | 5.0 | 14.0 | 0.00 | 0.16 | 0.00 | 85 | 1015.2 |
| 20260901012058 | 60 | 248 | 6.0 | 13.0 | 0.00 | 0.16 | 0.00 | 85 | 1015.1 |
| 20260901011621 | 60 | 281 | 7.0 | 14.0 | 0.00 | 0.16 | 0.00 | 85 | 1015.1 |
| 20260901011057 | 60 | 270 | 8.0 | 14.0 | 0.00 | 0.16 | 0.00 | 86 | 1015.1 |
| 20260901010558 | 60 | 254 | 6.0 | 12.0 | 0.00 | 0.16 | 0.00 | 86 | 1015.1 |
| 20260901010117 | 60 | 280 | 7.0 | 14.0 | 0.00 | 0.16 | 0.00 | 86 | 1015.1 |
| 20260901005558 | 60 | 264 | 7.0 | 14.0 | 0.00 | 0.16 | 0.00 | 86 | 1015.1 |
| 20260901005059 | 60 | 246 | 8.0 | 12.0 | 0.00 | 0.16 | 0.00 | 86 | 1015.1 |
| 20260901004604 | 60 | 244 | 5.0 | 12.0 | 0.00 | 0.16 | 0.00 | 86 | 1015.0 |
| 20260901004057 | 60 | 269 | 7.0 | 13.0 | 0.00 | 0.16 | 0.00 | 86 | 1015.0 |
| 20260901003600 | 60 | 238 | 5.0 | 14.0 | 0.00 | 0.16 | 0.00 | 86 | 1015.0 |
| 20260901003105 | 60 | 258 | 8.0 | 17.0 | 0.00 | 0.16 | 0.00 | 86 | 1014.9 |
| 20260901002601 | 60 | 271 | 8.0 | 17.0 | 0.00 | 0.16 | 0.00 | 86 | 1014.9 |
| 20260901002100 | 60 | 265 | 7.0 | 16.0 | 0.00 | 0.16 | 0.00 | 86 | 1014.9 |
| 20260901001604 | 60 | 267 | 7.0 | 15.0 | 0.00 | 0.16 | 0.00 | 86 | 1014.9 |
| 20260901001057 | 60 | 262 | 7.0 | 15.0 | 0.00 | 0.16 | 0.00 | 86 | 1014.8 |
| 20260901000558 | 60 | 262 | 5.0 | 15.0 | 0.00 | 0.16 | 0.00 | 86 | 1014.8 |
| 20260901000104 | 60 | 284 | 7.0 | 15.0 | 0.00 | 0.16 | 0.00 | 86 | 1014.7 |
| 20260831235558 | 60 | 260 | 5.0 | 14.0 | 0.00 | 0.16 | 0.00 | 86 | 1014.7 |
| 20260831235058 | 60 | 274 | 7.0 | 16.0 | 0.00 | 0.16 | 0.00 | 86 | 1014.6 |
| 20260831234604 | 60 | 302 | 8.0 | 18.0 | 0.00 | 0.16 | 0.00 | 86 | 1014.5 |
| 20260831234057 | 60 | 234 | 8.0 | 18.0 | 0.00 | 0.16 | 0.00 | 86 | 1014.5 |
| 20260831233558 | 60 | 261 | 7.0 | 16.0 | 0.00 | 0.16 | 0.00 | 86 | 1014.4 |
| 20260831233103 | 60 | 240 | 8.0 | 15.0 | 0.00 | 0.16 | 0.00 | 86 | 1014.5 |
| 20260831232559 | 60 | 274 | 8.0 | 14.0 | 0.00 | 0.16 | 0.00 | 86 | 1014.3 |
| 20260831232100 | 60 | 260 | 8.0 | 18.0 | 0.00 | 0.16 | 0.00 | 86 | 1014.2 |
| 20260831231604 | 60 | 258 | 7.0 | 18.0 | 0.00 | 0.16 | 0.00 | 87 | 1014.2 |
| 20260831231057 | 59 | 257 | 10.0 | 18.0 | 0.00 | 0.16 | 0.00 | 87 | 1014.2 |
| 20260831230601 | 59 | 238 | 7.0 | 14.0 | 0.00 | 0.16 | 0.00 | 87 | 1014.1 |
| 20260831230120 | 59 | 262 | 7.0 | 15.0 | 0.00 | 0.16 | 0.00 | 88 | 1014.2 |
| 20260831225601 | 59 | 258 | 8.0 | 15.0 | 0.00 | 0.16 | 0.00 | 88 | 1014.2 |
| 20260831225058 | 59 | 233 | 6.0 | 14.0 | 0.00 | 0.16 | 0.00 | 89 | 1014.1 |
| 20260831224611 | 59 | 238 | 6.0 | 14.0 | 0.00 | 0.16 | 0.00 | 88 | 1014.1 |
| 20260831224101 | 59 | 241 | 8.0 | 14.0 | 0.00 | 0.16 | 0.00 | 88 | 1014.0 |
| 20260831223559 | 59 | 262 | 8.0 | 14.0 | 0.00 | 0.16 | 0.00 | 88 | 1014.0 |
| 20260831223101 | 59 | 238 | 8.0 | 15.0 | 0.00 | 0.16 | 0.00 | 88 | 1014.0 |
| 20260831222556 | 59 | 243 | 9.0 | 17.0 | 0.00 | 0.16 | 0.00 | 88 | 1014.0 |
| 20260831222059 | 59 | 262 | 7.0 | 17.0 | 0.00 | 0.16 | 0.00 | 89 | 1014.0 |
| 20260831221610 | 59 | 256 | 8.0 | 15.0 | 0.00 | 0.16 | 0.00 | 90 | 1013.9 |
| 20260831221057 | 58 | 251 | 7.0 | 15.0 | 0.00 | 0.16 | 0.00 | 90 | 1014.0 |
| 20260831220557 | 58 | 243 | 6.0 | 10.0 | 0.00 | 0.16 | 0.00 | 90 | 1014.0 |
| 20260831220115 | 58 | 247 | 4.0 | 10.0 | 0.00 | 0.16 | 0.00 | 90 | 1013.9 |
| 20260831215556 | 58 | 234 | 4.0 | 10.0 | 0.00 | 0.16 | 0.16 | 90 | 1013.8 |
| 20260831215056 | 58 | 247 | 4.0 | 10.0 | 0.00 | 0.16 | 0.16 | 90 | 1013.8 |
| 20260831214610 | 58 | 244 | 4.0 | 12.0 | 0.00 | 0.16 | 0.16 | 90 | 1013.8 |
| 20260831214055 | 58 | 238 | 6.0 | 12.0 | 0.00 | 0.16 | 0.16 | 90 | 1013.8 |
| 20260831213556 | 58 | 246 | 4.0 | 11.0 | 0.00 | 0.16 | 0.16 | 90 | 1013.7 |
| 20260831213058 | 58 | 225 | 5.0 | 11.0 | 0.00 | 0.16 | 0.16 | 90 | 1013.6 |
| 20260831212556 | 57 | 237 | 5.0 | 10.0 | 0.00 | 0.16 | 0.16 | 90 | 1013.6 |
| 20260831212058 | 57 | 230 | 4.0 | 12.0 | 0.00 | 0.16 | 0.16 | 90 | 1013.6 |
| 20260831211608 | 58 | 239 | 3.0 | 12.0 | 0.00 | 0.16 | 0.16 | 90 | 1013.5 |
| 20260831211056 | 58 | 229 | 4.0 | 10.0 | 0.00 | 0.16 | 0.16 | 89 | 1013.3 |
| 20260831210555 | 58 | 236 | 4.0 | 10.0 | 0.00 | 0.16 | 0.16 | 89 | 1013.3 |
| 20260831210100 | 58 | 248 | 5.0 | 10.0 | 0.00 | 0.16 | 0.16 | 89 | 1013.4 |
| 20260831205556 | 58 | 238 | 5.0 | 11.0 | 0.00 | 0.16 | 0.16 | 89 | 1013.4 |
| 20260831205057 | 58 | 236 | 4.0 | 11.0 | 0.00 | 0.16 | 0.16 | 89 | 1013.4 |
| 20260831204603 | 58 | 261 | 4.0 | 11.0 | 0.00 | 0.16 | 0.16 | 89 | 1013.4 |
| 20260831204056 | 58 | 236 | 5.0 | 11.0 | 0.00 | 0.16 | 0.16 | 89 | 1013.4 |
| 20260831203558 | 58 | 244 | 6.0 | 12.0 | 0.00 | 0.16 | 0.16 | 89 | 1013.3 |
| 20260831203108 | 58 | 227 | 5.0 | 13.0 | 0.00 | 0.16 | 0.16 | 90 | 1013.2 |
| 20260831202555 | 58 | 217 | 7.0 | 13.0 | 0.00 | 0.16 | 0.16 | 90 | 1013.2 |
| 20260831202056 | 58 | 225 | 5.0 | 12.0 | 0.00 | 0.16 | 0.16 | 90 | 1013.2 |
| 20260831201601 | 58 | 242 | 6.0 | 12.0 | 0.00 | 0.16 | 0.16 | 90 | 1013.1 |
| 20260831201100 | 58 | 239 | 5.0 | 10.0 | 0.00 | 0.16 | 0.16 | 90 | 1013.1 |
| 20260831200556 | 58 | 252 | 3.0 | 11.0 | 0.00 | 0.16 | 0.16 | 90 | 1013.0 |
| 20260831200110 | 58 | 243 | 6.0 | 11.0 | 0.00 | 0.16 | 0.16 | 89 | 1013.0 |
| 20260831195559 | 58 | 234 | 6.0 | 11.0 | 0.00 | 0.16 | 0.16 | 89 | 1013.0 |
| 20260831195056 | 59 | 232 | 4.0 | 11.0 | 0.00 | 0.16 | 0.16 | 89 | 1012.9 |
| 20260831194618 | 59 | 213 | 6.0 | 14.0 | 0.00 | 0.16 | 0.16 | 89 | 1012.8 |
| 20260831194056 | 59 | 229 | 7.0 | 14.0 | 0.00 | 0.16 | 0.16 | 89 | 1012.8 |
| 20260831193558 | 59 | 258 | 5.0 | 12.0 | 0.00 | 0.16 | 0.16 | 90 | 1012.8 |
| 20260831193101 | 59 | 236 | 5.0 | 14.0 | 0.00 | 0.16 | 0.16 | 90 | 1012.7 |
| 20260831192558 | 59 | 231 | 6.0 | 14.0 | 0.00 | 0.16 | 0.16 | 90 | 1012.7 |
| 20260831192058 | 59 | 240 | 4.0 | 14.0 | 0.00 | 0.16 | 0.16 | 89 | 1012.7 |
| 20260831191615 | 59 | 229 | 7.0 | 14.0 | 0.00 | 0.16 | 0.16 | 89 | 1012.7 |
| 20260831191100 | 58 | 238 | 7.0 | 17.0 | 0.00 | 0.16 | 0.16 | 89 | 1012.5 |
| 20260831190600 | 58 | 260 | 6.0 | 17.0 | 0.00 | 0.16 | 0.16 | 90 | 1012.4 |
| 20260831190115 | 58 | 248 | 7.0 | 14.0 | 0.00 | 0.16 | 0.16 | 90 | 1012.4 |
| 20260831185558 | 59 | 221 | 7.0 | 14.0 | 0.00 | 0.16 | 0.16 | 90 | 1012.2 |
| 20260831185057 | 59 | 234 | 6.0 | 14.0 | 0.00 | 0.16 | 0.16 | 90 | 1012.2 |
| 20260831184605 | 59 | 248 | 4.0 | 14.0 | 0.00 | 0.16 | 0.16 | 89 | 1012.2 |
| 20260831184057 | 59 | 247 | 6.0 | 11.0 | 0.00 | 0.16 | 0.16 | 90 | 1012.1 |
| 20260831183557 | 59 | 223 | 5.0 | 13.0 | 0.00 | 0.16 | 0.16 | 89 | 1012.1 |
| 20260831183120 | 59 | 237 | 6.0 | 18.0 | 0.00 | 0.16 | 0.16 | 89 | 1012.0 |
| 20260831182558 | 59 | 261 | 7.0 | 18.0 | 0.01 | 0.16 | 0.16 | 89 | 1011.9 |
| 20260831182058 | 59 | 224 | 5.0 | 13.0 | 0.02 | 0.16 | 0.16 | 89 | 1011.9 |
| 20260831181604 | 59 | 226 | 6.0 | 11.0 | 0.03 | 0.16 | 0.16 | 89 | 1011.9 |
| 20260831181057 | 59 | 240 | 4.0 | 11.0 | 0.04 | 0.16 | 0.16 | 90 | 1011.9 |
| 20260831180558 | 60 | 211 | 6.0 | 11.0 | 0.05 | 0.16 | 0.16 | 90 | 1011.9 |
| 20260831180115 | 60 | 236 | 3.0 | 8.0 | 0.06 | 0.16 | 0.16 | 90 | 1011.9 |
| 20260831175557 | 60 | 223 | 3.0 | 9.0 | 0.06 | 0.16 | 0.16 | 90 | 1011.9 |
| 20260831175058 | 60 | 213 | 3.0 | 10.0 | 0.07 | 0.16 | 0.16 | 90 | 1011.9 |
| 20260831174608 | 60 | 242 | 5.0 | 11.0 | 0.07 | 0.16 | 0.16 | 89 | 1011.8 |
| 20260831174100 | 60 | 246 | 6.0 | 11.0 | 0.07 | 0.16 | 0.16 | 89 | 1011.9 |
| 20260831173558 | 60 | 246 | 5.0 | 10.0 | 0.07 | 0.16 | 0.16 | 89 | 1011.8 |
| 20260831173103 | 60 | 256 | 6.0 | 10.0 | 0.07 | 0.15 | 0.15 | 89 | 1011.7 |
| 20260831172557 | 61 | 244 | 4.0 | 12.0 | 0.06 | 0.14 | 0.14 | 88 | 1011.6 |
| 20260831172057 | 61 | 238 | 4.0 | 12.0 | 0.05 | 0.14 | 0.14 | 87 | 1011.6 |
| 20260831171605 | 61 | 222 | 7.0 | 16.0 | 0.03 | 0.12 | 0.12 | 87 | 1011.6 |
| 20260831171057 | 61 | 238 | 7.0 | 16.0 | 0.03 | 0.11 | 0.11 | 86 | 1011.6 |
| 20260831170557 | 62 | 221 | 6.0 | 19.0 | 0.02 | 0.11 | 0.11 | 86 | 1011.6 |
| 20260831170107 | 62 | 232 | 9.0 | 20.0 | 0.01 | 0.10 | 0.10 | 85 | 1011.8 |
| 20260831165600 | 62 | 238 | 11.0 | 20.0 | 0.01 | 0.10 | 0.10 | 85 | 1011.8 |
| 20260831165057 | 62 | 244 | 7.0 | 16.0 | 0.00 | 0.08 | 0.08 | 85 | 1011.8 |
| 20260831164559 | 62 | 240 | 7.0 | 16.0 | 0.00 | 0.08 | 0.08 | 85 | 1011.6 |
| 20260831164057 | 62 | 221 | 7.0 | 14.0 | 0.00 | 0.08 | 0.08 | 85 | 1011.6 |
| 20260831163557 | 62 | 232 | 8.0 | 14.0 | 0.00 | 0.08 | 0.08 | 85 | 1011.4 |
| 20260831163103 | 62 | 222 | 3.0 | 8.0 | 0.00 | 0.08 | 0.08 | 86 | 1011.4 |
| 20260831162558 | 62 | 0 | 3.0 | 11.0 | 0.00 | 0.08 | 0.08 | 86 | 1011.3 |
| 20260831162057 | 62 | 198 | 5.0 | 11.0 | 0.00 | 0.08 | 0.08 | 85 | 1011.2 |
| 20260831161608 | 63 | 204 | 5.0 | 11.0 | 0.00 | 0.08 | 0.08 | 85 | 1011.2 |
| 20260831161057 | 63 | 203 | 4.0 | 10.0 | 0.00 | 0.08 | 0.08 | 85 | 1011.0 |
| 20260831160601 | 63 | 215 | 5.0 | 10.0 | 0.00 | 0.08 | 0.08 | 85 | 1011.0 |
| 20260831160109 | 63 | 224 | 5.0 | 10.0 | 0.00 | 0.08 | 0.08 | 85 | 1011.1 |
| 20260831155558 | 63 | 230 | 3.0 | 10.0 | 0.00 | 0.08 | 0.08 | 85 | 1011.0 |
| 20260831155102 | 62 | 238 | 4.0 | 12.0 | 0.00 | 0.08 | 0.08 | 86 | 1011.0 |
| 20260831154629 | 62 | 223 | 5.0 | 12.0 | 0.01 | 0.08 | 0.08 | 85 | 1011.0 |
| 20260831154058 | 62 | 225 | 5.0 | 12.0 | 0.06 | 0.08 | 0.08 | 85 | 1011.0 |
| 20260831153557 | 62 | 225 | 5.0 | 12.0 | 0.06 | 0.08 | 0.08 | 85 | 1011.0 |
| 20260831153059 | 62 | 227 | 5.0 | 12.0 | 0.06 | 0.08 | 0.08 | 85 | 1011.1 |
| 20260831152558 | 62 | 239 | 4.0 | 10.0 | 0.06 | 0.08 | 0.08 | 85 | 1011.0 |
| 20260831152057 | 62 | 236 | 5.0 | 10.0 | 0.06 | 0.08 | 0.08 | 84 | 1011.0 |
| 20260831151605 | 63 | 253 | 2.0 | 9.0 | 0.06 | 0.08 | 0.08 | 85 | 1010.9 |
| 20260831151057 | 63 | 223 | 4.0 | 11.0 | 0.06 | 0.08 | 0.08 | 85 | 1010.9 |
| 20260831150557 | 63 | 229 | 6.0 | 11.0 | 0.06 | 0.08 | 0.08 | 82 | 1011.1 |
| 20260831150112 | 63 | 234 | 5.0 | 16.0 | 0.05 | 0.07 | 0.07 | 80 | 1011.2 |
| 20260831145556 | 64 | 239 | 6.0 | 20.0 | 0.05 | 0.07 | 0.07 | 77 | 1011.0 |
| 20260831145058 | 65 | 250 | 9.0 | 36.0 | 0.05 | 0.07 | 0.07 | 75 | 1011.1 |
| 20260831144606 | 67 | 244 | 15.0 | 36.0 | 0.04 | 0.07 | 0.07 | 70 | 1010.9 |
| 20260831144057 | 70 | 236 | 15.0 | 36.0 | 0.00 | 0.02 | 0.02 | 62 | 1010.9 |
| 20260831143557 | 71 | 274 | 5.0 | 14.0 | 0.00 | 0.02 | 0.02 | 62 | 1010.4 |
| 20260831143105 | 71 | 241 | 7.0 | 15.0 | 0.00 | 0.02 | 0.02 | 61 | 1010.3 |
| 20260831142558 | 71 | 259 | 5.0 | 15.0 | 0.00 | 0.02 | 0.02 | 60 | 1010.4 |
| 20260831142058 | 72 | 238 | 7.0 | 16.0 | 0.00 | 0.02 | 0.02 | 59 | 1010.4 |
| 20260831141614 | 72 | 243 | 9.0 | 16.0 | 0.00 | 0.02 | 0.02 | 59 | 1010.4 |
| 20260831141059 | 73 | 256 | 6.0 | 16.0 | 0.00 | 0.02 | 0.02 | 61 | 1010.2 |
| 20260831140557 | 73 | 240 | 6.0 | 16.0 | 0.00 | 0.02 | 0.02 | 62 | 1010.3 |
| 20260831140105 | 73 | 247 | 6.0 | 17.0 | 0.02 | 0.02 | 0.02 | 63 | 1010.2 |
| 20260831135557 | 73 | 239 | 9.0 | 17.0 | 0.02 | 0.02 | 0.02 | 66 | 1010.2 |
| 20260831135057 | 72 | 273 | 4.0 | 13.0 | 0.02 | 0.02 | 0.02 | 70 | 1010.2 |
| 20260831134606 | 71 | 243 | 8.0 | 13.0 | 0.02 | 0.02 | 0.02 | 69 | 1010.2 |
| 20260831134056 | 70 | 242 | 5.0 | 15.0 | 0.02 | 0.02 | 0.02 | 71 | 1010.3 |
| 20260831133558 | 69 | 261 | 5.0 | 15.0 | 0.02 | 0.02 | 0.02 | 73 | 1010.3 |
| 20260831133106 | 69 | 248 | 7.0 | 15.0 | 0.02 | 0.02 | 0.02 | 74 | 1010.2 |
| 20260831132557 | 68 | 234 | 4.0 | 8.0 | 0.02 | 0.02 | 0.02 | 77 | 1010.2 |
| 20260831132057 | 67 | 255 | 4.0 | 14.0 | 0.02 | 0.02 | 0.02 | 80 | 1010.3 |
| 20260831131606 | 67 | 243 | 5.0 | 14.0 | 0.02 | 0.02 | 0.02 | 76 | 1010.4 |
| 20260831131057 | 68 | 253 | 7.0 | 26.0 | 0.02 | 0.02 | 0.02 | 72 | 1010.4 |
| 20260831130557 | 70 | 263 | 10.0 | 26.0 | 0.02 | 0.02 | 0.02 | 71 | 1010.4 |
| 20260831130104 | 72 | 238 | 15.0 | 25.0 | 0.00 | 0.00 | 0.00 | 62 | 1010.6 |
| 20260831125558 | 73 | 360 | 12.0 | 20.0 | 0.00 | 0.00 | 0.00 | 56 | 1010.3 |
| 20260831125056 | 74 | 360 | 9.0 | 19.0 | 0.00 | 0.00 | 0.00 | 55 | 1010.1 |
| 20260831124559 | 75 | 360 | 7.0 | 19.0 | 0.00 | 0.00 | 0.00 | 53 | 1010.1 |
| 20260831124057 | 76 | 223 | 6.0 | 22.0 | 0.00 | 0.00 | 0.00 | 51 | 1010.1 |
| 20260831123556 | 76 | 360 | 8.0 | 22.0 | 0.00 | 0.00 | 0.00 | 49 | 1010.0 |
| 20260831123110 | 76 | 360 | 10.0 | 21.0 | 0.00 | 0.00 | 0.00 | 50 | 1010.0 |
| 20260831122559 | 76 | 360 | 11.0 | 24.0 | 0.00 | 0.00 | 0.00 | 50 | 1010.0 |
| 20260831122057 | 75 | 222 | 11.0 | 24.0 | 0.00 | 0.00 | 0.00 | 54 | 1010.0 |
| 20260831121609 | 74 | 360 | 11.0 | 21.0 | 0.00 | 0.00 | 0.00 | 54 | 1010.0 |
| 20260831121059 | 74 | 360 | 8.0 | 19.0 | 0.00 | 0.00 | 0.00 | 54 | 1009.9 |
| 20260831120556 | 74 | 219 | 10.0 | 19.0 | 0.00 | 0.00 | 0.00 | 54 | 1010.1 |
| 20260831120124 | 74 | 229 | 9.0 | 22.0 | 0.00 | 0.00 | 0.00 | 55 | 1010.2 |
| 20260831115557 | 74 | 360 | 10.0 | 22.0 | 0.00 | 0.00 | 0.00 | 54 | 1010.1 |
| 20260831115059 | 75 | 249 | 11.0 | 22.0 | 0.00 | 0.00 | 0.00 | 54 | 1010.1 |
| 20260831114600 | 75 | 231 | 10.0 | 22.0 | 0.00 | 0.00 | 0.00 | 54 | 1010.0 |
| 20260831114057 | 76 | 360 | 9.0 | 22.0 | 0.00 | 0.00 | 0.00 | 53 | 1010.1 |
| 20260831113557 | 77 | 200 | 10.0 | 21.0 | 0.00 | 0.00 | 0.00 | 52 | 1010.1 |
| 20260831113107 | 76 | 180 | 11.0 | 21.0 | 0.00 | 0.00 | 0.00 | 51 | 1010.2 |
| 20260831112600 | 76 | 360 | 8.0 | 21.0 | 0.00 | 0.00 | 0.00 | 55 | 1010.3 |
| 20260831112058 | 75 | 360 | 10.0 | 21.0 | 0.00 | 0.00 | 0.00 | 56 | 1010.3 |
| 20260831111614 | 75 | 360 | 10.0 | 20.0 | 0.00 | 0.00 | 0.00 | 56 | 1010.3 |
| 20260831111057 | 74 | 360 | 8.0 | 18.0 | 0.00 | 0.00 | 0.00 | 59 | 1010.3 |
| 20260831110557 | 73 | 360 | 6.0 | 15.0 | 0.00 | 0.00 | 0.00 | 58 | 1010.3 |
| 20260831110104 | 73 | 360 | 7.0 | 17.0 | 0.00 | 0.00 | 0.00 | 58 | 1010.4 |
| 20260831105558 | 73 | 232 | 9.0 | 17.0 | 0.00 | 0.00 | 0.00 | 58 | 1010.5 |
| 20260831105100 | 73 | 360 | 10.0 | 17.0 | 0.00 | 0.00 | 0.00 | 59 | 1010.5 |
| 20260831104604 | 73 | 360 | 7.0 | 16.0 | 0.00 | 0.00 | 0.00 | 59 | 1010.6 |
| 20260831104059 | 73 | 360 | 7.0 | 16.0 | 0.00 | 0.00 | 0.00 | 58 | 1010.6 |
| 20260831103558 | 73 | 360 | 10.0 | 17.0 | 0.00 | 0.00 | 0.00 | 58 | 1010.6 |
| 20260831103108 | 73 | 360 | 10.0 | 19.0 | 0.00 | 0.00 | 0.00 | 60 | 1010.6 |
| 20260831102557 | 72 | 360 | 10.0 | 19.0 | 0.00 | 0.00 | 0.00 | 60 | 1010.6 |
| 20260831102057 | 72 | 240 | 8.0 | 16.0 | 0.00 | 0.00 | 0.00 | 60 | 1010.7 |
| 20260831101606 | 73 | 360 | 7.0 | 16.0 | 0.00 | 0.00 | 0.00 | 60 | 1010.7 |
| 20260831101058 | 73 | 259 | 7.0 | 18.0 | 0.00 | 0.00 | 0.00 | 60 | 1010.7 |
| 20260831100559 | 73 | 252 | 11.0 | 18.0 | 0.00 | 0.00 | 0.00 | 61 | 1010.8 |
| 20260831100114 | 73 | 254 | 9.0 | 20.0 | 0.00 | 0.00 | 0.00 | 60 | 1010.7 |
| 20260831095559 | 74 | 192 | 10.0 | 20.0 | 0.00 | 0.00 | 0.00 | 60 | 1010.9 |
| 20260831095056 | 74 | 245 | 10.0 | 20.0 | 0.00 | 0.00 | 0.00 | 60 | 1010.9 |
| 20260831094606 | 74 | 360 | 11.0 | 19.0 | 0.00 | 0.00 | 0.00 | 62 | 1010.8 |
| 20260831094057 | 73 | 360 | 8.0 | 19.0 | 0.00 | 0.00 | 0.00 | 65 | 1010.9 |
| 20260831093558 | 73 | 360 | 9.0 | 24.0 | 0.00 | 0.00 | 0.00 | 63 | 1010.9 |
| 20260831093109 | 72 | 360 | 10.0 | 24.0 | 0.00 | 0.00 | 0.00 | 65 | 1010.9 |